{"data":{"norad_id":60401,"intl_designator":"2024-141D","name":"STARLINK-11232 [DTC]","alt_names":[],"object_type":"PAYLOAD","status":"ACTIVE","operator":null,"country":"US","launch_date":"2024-08-10","launch_site_code":"AFETR","launch_vehicle":null,"mission":null,"orbit_class":"UNKNOWN","rcs_meters":null,"size_class":null,"mass_kg":null,"dimensions":null,"purposes":["comms"],"wikipedia_slug":null,"has_3d_model":false,"image_url":null,"decayed_at":null,"tle_current":{"epoch":"2026-09-21T06:19:19.304832Z","epoch_age_seconds":119672,"freshness":"FRESH","line1":"1 60401U 24141D   26264.26341788  .00000144  00000+0  60406-5 0  9991","line2":"2 60401  53.1583 201.8844 0000803  92.2093 267.9017 15.69714044122469","mean_motion":15.69714044,"eccentricity":8.03e-5,"inclination_deg":53.1583,"raan_deg":201.8844,"arg_perigee_deg":92.2093,"mean_anomaly_deg":267.9017,"bstar":6.0406e-6,"rev_number":12246,"period_min":91.736453878602,"perigee_km":359.17412853469,"apogee_km":360.25622759448,"semimajor_km":6737.8521780646,"source":"CELESTRAK","updated_at":"2026-09-22T09:00:49.229263Z"}}}